Regional Weather Roundup
Issued by NWS Pendleton, OR

Home | Current Version | Previous Version | Text Only | Print | Product List | Glossary On
Versions: 1 2 3 4 5 6 7 8 9 10 11 12 13 14 15 16 17 18 19 20 21 22 23 24 25 26 27 28 29 30 31 32 33 34 35 36 37 38 39 40 41 42 43 44 45 46 47 48 49 50
000
ASUS46 KPDT 031925
RWRPDT
PENDLETON REGIONAL WEATHER ROUNDUP
NATIONAL WEATHER SERVICE PENDLETON OREGON
1200 PM PDT WED JUN 3 2015

NOTE: FAIR INDICATES FEW OR NO CLOUDS BELOW 12,000 FEET WITH NO
SIGNIFICANT WEATHER AND/OR OBSTRUCTIONS TO VISIBILITY.

# INDICATES UNOFFICIAL STATION AND DATA

WAZ520-032010-
EAST SLOPES OF WASHINGTON CASCADES

CITY            SKY/WX      TMP DP  RH  WIND    PRES   REMARKS
#BULLFROG 2SW   N/A         58  43  57  W6      27.62S
#BUMPING DAM    N/A         50  N/A N/A S2      N/A
#CLE ELUM HS    N/A         58  44  60  NW9     29.95S
#CLE ELUM LAKE  N/A         57  45  64  W1      29.94F
#CLIFFDEL 2NW   N/A         55  41  59  N3      N/A
#GLENWOOD       N/A         63  49  60  SW5     29.96F
#NELSON         N/A         59  45  60  NW1     29.98F
#NELSON 3SW     N/A         56  43  62  CALM    30.18S
#NILE           N/A         61  43  51  W3      29.23S
#RONALD 2NW     N/A         59  42  53  SW2     29.87F
#SNOWDEN        N/A         58  33  39  NW2     N/A
#TEANAWAY 4NE   N/A         61  49  65  W7      N/A
#TROUT LAKE 1NE N/A         61  46  58  NW7     29.98S
$$

WAZ521-032010-
SIMCOE HIGHLANDS

CITY            SKY/WX      TMP DP  RH  WIND    PRES   REMARKS
#BICKLETON HS   N/A         58  33  39  N7      N/A
#CENTERVILLE 4W N/A         64  47  54  NW14    29.75F
#CENTERVILLE 1SWN/A         63  46  54  W15     29.93F
#GOODNOE HILLS  N/A         69  46  44  SW23    N/A
#LYLE 6NE       N/A         61  47  60  SW9     29.97S
$$

WAZ026-032010-
KITTITAS VALLEY

CITY            SKY/WX      TMP DP  RH  WIND    PRES   REMARKS
ELLENSBURG AP   MOCLDY      68  44  42  NW15    29.97S
YTC-OPS AREA    N/A         61  40  46  W10     29.97S
#ELLENSBURG CWU N/A         65  43  45  N13     29.89S
#ELLENSBURG 3NE N/A         62  46  56  NW7     29.97S
#ELLENSBURG 1E  N/A         64  43  46  NW2     N/A
#KITTITAS 4N    N/A         67  45  45  N3      28.27F
#KITTITAS 3S    N/A         64  44  48  N1      29.92S
#THORP 6N       N/A         58  44  60  W15     29.97F
$$

WAZ027-032010-
YAKIMA VALLEY

CITY            SKY/WX      TMP DP  RH  WIND    PRES   REMARKS
SUNNYSIDE AP    PTCLDY      68  43  40  CALM    29.96F
YAKIMA AIRPORT  CLOUDY      72  42  34  NW5     29.97F
#DONALD 2NE     N/A         75  26  16  S1      28.82S
#GRANDVIEW      N/A         68  43  40  W3      29.95F
#MABTON         N/A         67  47  49  N2      29.97S
#MOXEE 2E       N/A         71  18  13  SW2     29.88F
#NACHES 2SW     N/A         68  45  44  W2      30.00S
#OUTLOOK DOT    N/A         N/A N/A N/A W5      N/A
#SELAH 8E       N/A         63  43  48  N7      N/A
#TERRACE HTS    N/A         68  44  42  SW5     29.90F
#TOPPENISH      N/A         65  43  45  N1      29.86F
#WAPATO 4NE     N/A         75  26  16  S1      28.82S
#WEST VALLEY    N/A         67  44  43  CALM    29.92F
#W YAKIMA       N/A         67  45  45  E2      29.92
#WHITE SWAN 5E  N/A         69  46  44  NW3     29.94F
#WILEY CITY 3W  N/A         72  39  30  CALM    29.93F
$$

WAZ028-032010-
LOWER COLUMBIA BASIN...WASHINGTON

CITY            SKY/WX      TMP DP  RH  WIND    PRES   REMARKS
PASCO           PTCLDY      71  45  39  MISG    29.97F
RICHLAND AWOS   PTCLDY      72  45  38  CALM    29.96F
#BASIN CITY 5SW N/A         71  52  51  E6      29.96F
#BENTON CITY    N/A         68  46  45  NE1     29.85F
#CONNELL 5N     N/A         69  45  42  SW8     29.93F
#CONNELL 5NW    N/A         67  49  52  W3      29.91F
#ELTOPIA 6NW    N/A         66  49  54  S5      28.94F
#KAHLOTUS       N/A         66  46  48  SW5     29.94F
#KENNEWICK      N/A         58  43  57  W6      27.62S
#KENNEWICK 3S   N/A         70  47  44  CALM    29.95F
#PATERSON       N/A         68  49  51  S8      29.94F
#PROSSER        N/A         66  42  42  W3      29.94F
#SAGEMOOR 2W    N/A         71  50  47  CALM    29.79F
#TOUCHET 2S     N/A         69  51  53  SW5     29.94F
#WEST PASCO     N/A         75  52  45  E2      29.95F
$$

WAZ029-032010-
FOOTHILLS OF THE BLUES...WASHINGTON

CITY            SKY/WX      TMP DP  RH  WIND    PRES   REMARKS
WALLA WALLA AP  PTCLDY      67  43  42  SW14    29.99F
#DAYTON SCHOOL  N/A         65  40  40  SW2     30.00F
#LOWDEN 2SE     N/A         68  49  51  W3      29.94F
#PLEASANT VIEW 1N/A         65  46  50  S7      29.99F
#PRESCOTT       N/A         67  48  50  S3      29.95F
#SUDBURY        N/A         68  N/A N/A CALM    N/A
#WHITMAN COLLEGEN/A         64  46  52  S3      30.01F
#WAITSBURG 8N   N/A         66  23  19  S17     29.79F
#WALLA WALLA U  N/A         67  47  49  S3      29.96F
#WHITMAN MISSIONN/A         66  48  52  CALM    29.97F
$$

WAZ030-032010-
BLUE MOUNTAINS...WASHINGTON

CITY            SKY/WX      TMP DP  RH  WIND    PRES   REMARKS
#DIXIE 5SE      N/A         57  43  59  SW14    29.95F
$$

ORZ009-041-WAZ024-032010-
COLUMBIA RIVER GORGE

CITY            SKY/WX      TMP DP  RH  WIND    PRES   REMARKS
HOOD RIVER AP   CLOUDY      63  48  58  W9      30.04S
THE DALLES AP   SUNNY       72  45  38  W12     30.00F
#ARLINGTON AIRPON/A         69  44  40  W13     29.82S
#ARLINGTON HS   N/A         72  45  38  W12     29.86F
#CELILO DOT     N/A         71  49  46  SW8     N/A
#MOSIER 1S      N/A         65  38  37  W8      30.00S
#MURDOCK        N/A         68  51  55  W16G29  30.00F
#RUFUS DOT      N/A         71  49  46  W17     N/A

$$

ORZ510-032010-
NORTH CENTRAL OREGON

CITY            SKY/WX      TMP DP  RH  WIND    PRES   REMARKS
#CHENOWITH 1W   N/A         61  45  56  W25     N/A
#COW CYN RST AREN/A         60  N/A N/A SW7     N/A
#DUFUR 9E       N/A         57  45  64  NW13    30.05S
#GRASS VALLEY 1SN/A         61  44  53  W5      30.02R
#KENT DOT       N/A         61  36  39  SW8     N/A
#MAUPIN SCHOOL  N/A         66  45  47  CALM    30.01S
#MORO SCHOOL    N/A         61  50  67  W13     30.02F
#SHANIKO 5WSW   N/A         57  36  45  W7      N/A
#SHANIKO 4NW    N/A         56  37  49  SW3     30.03F
#TYGH VALLEY 2NEN/A         66  45  47  S3      29.97F
#WAPANITIA AIRPON/A         63  46  54  W5      29.99S
#WASCO DOT      N/A         67  45  45  W12     N/A
#WASCO AIRPORT  N/A         67  41  39  W12     N/A
#WASCO 5NE      N/A         67  46  47  CALM    29.96F
$$

ORZ511-032010-
CENTRAL OREGON

CITY            SKY/WX      TMP DP  RH  WIND    PRES   REMARKS
BEND AIRPORT    MOSUNNY     57  37  47  CALM    30.02F
MADRAS AIRPORT  MOCLDY      63  41  44  N3      30.05S
PRINEVILLE AP   MOCLDY      59  41  51  W7      30.02F
REDMOND AIRPORT MOCLDY      61  40  46  N6      30.02F
#BEND 1SW       N/A         62  43  50  CALM    N/A
#BEND-AWBREY    N/A         60  46  60  SW8     29.98F
#BEND-KIM LN    N/A         62  46  56  E1      30.01S
#CROOKED RVR RANN/A         62  43  50  E3      29.95F
#LAKE BILLY CHINN/A         67   1   7  CALM    30.07F
#POWELL BUTTE   N/A         63  47  56  N2      29.65F
#PRINEVILLE 3N  N/A         62  44  52  SW3     29.93F
#WARM SPRINGS   N/A         65  43  45  SW2     29.98F

$$


ORZ509-032010-
EAST SLOPES OF OREGON CASCADES

CITY            SKY/WX      TMP DP  RH  WIND    PRES   REMARKS
#BLUE BOX PASS  N/A         49  -3  11  NW2     N/A
#CAMP SHERMAN   N/A         65  39  38  SW3     29.95F
#LA PINE 4NW    N/A         57  40  53  CALM    30.01F
#SISTERS AIRPOR N/A         59  47  64  N7      30.17S
#SISTERS ODOT   N/A         59  N/A N/A W2      N/A
#SISTERS 1NW    N/A         59  37  44  N5      N/A
#SISTERS 3N     N/A         61  42  50  CALM    30.01F
#SUNRIVER       N/A         61  36  39  S1      29.86F
#TUMALO 3W      N/A         58  42  55  E2      29.88S
#WANOGA BUTTE D N/A         47  36  65  SE5     N/A

$$

ORZ044-032010-
LOWER COLUMBIA BASIN...OREGON

CITY            SKY/WX      TMP DP  RH  WIND    PRES   REMARKS
HERMISTON       SUNNY       71  44  38  W10     29.97F
#BOARDMAN SCHOOLN/A         71  47  42  SW9     29.97F
#ECHO 8SW       N/A         70  46  42  W15     29.98F
#IONE SCHOOL    N/A         67  43  42  W8      29.95F
#IRRIGON 4NW    N/A         72  46  39  SW8     N/A
#UMATILLA SCHOOLN/A         73  54  51  W6      29.98F
#UMATILLA       N/A         71  46  41  CALM    29.88F
$$

ORZ507-032010-
NORTHERN FOOTHILLS OF THE BLUES

CITY            SKY/WX      TMP DP  RH  WIND    PRES   REMARKS
PENDLETON AIRPT PTCLDY      67  42  40  W9      29.98F
#ADAMS 3WNW     N/A         64  47  54  NW3     29.96F
#ATHENA         N/A         63  46  54  CALM    29.98F
#CAYUSE         N/A         64  46  52  S5      29.96F
#HELIX SCHOOL   N/A         63  45  52  W7      29.95F
#HELIX 3N       N/A         63  45  52  SW15    29.96F
#HELIX 6SW      N/A         63  45  52  W15     29.98F
#HOLDMAN 5SE    N/A         67  46  47  E7      29.99F
#HOLDMAN 6E     N/A         64  45  50  NE8     29.77F
#M-F FERNDALE   N/A         69  48  47  CALM    29.98F
#M-F GROVE ELEM N/A         66  41  40  SW6     29.98F
#M-FREEWATER 5SEN/A         65  47  52  CALM    29.98F
#PENDLETON DNTN N/A         73  42  33  SW3     29.96F
#PDT AQUATIC CTRN/A         68  45  44  SW7     29.98S
#PDT SUNRIDGE   N/A         68  46  45  W9      29.98F
#PENDLETON 7NW  N/A         69  50  51  W2      29.64R
#PILOT ROCK     N/A         65  41  41  S5      30.01S
#TUTUILLA       N/A         69  47  45  W7      29.97F
#UMAPINE 2E     N/A         67  48  50  NW1     29.95F
#WESTON SCHOOL  N/A         62  42  48  CALM    29.94F

$$

ORZ508-032010-
SOUTHERN FOOTHILLS OF THE BLUES

CITY            SKY/WX      TMP DP  RH  WIND    PRES   REMARKS
#AJAX           N/A         63  36  36  SW2     29.95S
#CONDON SCHOOL  N/A         58  42  55  CALM    29.98F
#CONDON 5W      N/A         56  39  53  W7      30.00S
#FOSSIL SCHOOL  N/A         59  43  55  NW2     29.97S
#HEPPNER EOC    N/A         64  42  45  W3      29.90F
#HEPPNER 4NE    N/A         60  41  49  W7      29.96S
#LEXINGTON 2SE  N/A         69  45  42  W3      29.94F
#RUGGS 5NE      N/A         64  42  45  W6      30.17S
#RUGGS 2SW      N/A         61  41  48  W2      29.98F

$$

ORZ502-503-032010-
BLUE MOUNTAINS

CITY            SKY/WX      TMP DP  RH  WIND    PRES   REMARKS
MEACHAM         CLOUDY      55  41  59  CALM    30.03F
#BATTLE MTN DOT N/A         53  45  74  CALM    N/A
#HEPPNER 15SE   N/A         58  44  60  NW5     29.92F
#LADD CYN SMT   N/A         57  39  51  NW10    N/A
#LONG CREEK HS  N/A         55  46  72  CALM    29.98F
#N POWDER DOT   N/A         60  44  55  N6      N/A
#PIKES PEAK     N/A         52  41  66  SW17G24 27.99S
#TOLLGATE       N/A         49  40  71  S5      29.96F
#TROY SCHOOL    N/A         72  46  39  S5      29.75F
#UKIAH          N/A         57  45  64  N3      29.98F
#WESTON 4E      N/A         58  45  62  SW5     29.92F
$$

ORZ505-032010-
JOHN DAY BASIN

CITY            SKY/WX      TMP DP  RH  WIND    PRES   REMARKS
JOHN DAY        PTCLDY      62  41  46  W5      30.01F
#JOHN DAY KJDY  N/A         63  63  100 SW2     29.77F
#DAYVILLE SCHOOLN/A         64  40  41  W3      29.96F
#MONUMENT HS    N/A         64  41  43  E6      30.01F
#MT. VERNON 5SE N/A         58  42  55  NW2     29.97F
$$

ORZ506-032010-
OCHOCO AND JOHN DAY HIGHLANDS

CITY            SKY/WX      TMP DP  RH  WIND    PRES   REMARKS
#BUCK CREEK DOT N/A         58  58  100 SW5     N/A
#HORSE RIDGE DO N/A         56  42  59  NW6     N/A
#KEYES SMT DOT  N/A         54  40  59  NW7     N/A
#PAULINA SCHOOL N/A         61  43  51  SE1     29.98F
#PINE MTN OBS   N/A         48  40  74  CALM    N/A
#PRAIRIE CITY   N/A         63  46  54  SW2     29.92F
#SENECA         N/A         57  N/A N/A N3      N/A
#SENECA 9NW     N/A         55  43  64  VRB1    29.95S
$$

ORZ049-032010-
GRANDE RONDE VALLEY

CITY            SKY/WX      TMP DP  RH  WIND    PRES   REMARKS
LA GRANDE       PTCLDY      64  41  43  N6      29.99F
#ELGIN 3N       N/A         62  41  46  S2      29.97F
#ELGIN 1E       N/A         61  43  51  CALM    N/A
#ISLAND CITY 4N N/A         61  54  78  CALM    30.06F
#LADD CYN DOT   N/A         61  42  50  NW8     N/A
#LA GRANDE ELEM N/A         62  46  56  NW2     30.01F
#UNION 1S       N/A         62  47  58  N3      29.86F
$$

ORZ050-032010-
WALLOWA COUNTY

CITY            SKY/WX      TMP DP  RH  WIND    PRES   REMARKS
JOSEPH AIRPORT  N/A         55  43  64  CALM    30.03F
#ENTERPRISE HS  N/A         57  47  69  CALM    30.01F
#IMNAHA SCHOOL  N/A         66  48  52  N6      29.96F
#IMNAHA 10S     N/A         62  49  62  NE3     29.97F
#JOSEPH 3N      N/A         56  43  62  SW2     30.03F
#JOSEPH 3W      N/A         52  45  77  CALM    29.87F
#LOSTINE        N/A         59  47  64  N1      29.74F
#MT HOWARD 8000 N/A         35  34  96  CALM    30.09R
#PROMISE 1S     N/A         56  44  64  SE3     30.04F
#WALLOWA SCHOOL N/A         61  45  56  W1      30.85F



$$



USA.gov is the U.S. government's official web portal to all federal, state and local government web resources and services.